Regional Weather Roundup
Issued by NWS New Orleans/Baton Rouge, LA

Home | Current Version | Previous Version | Graphics & Text | Print | Product List | Glossary On
Versions: 1 2 3 4 5 6 7 8 9 10 11 12 13 14 15 16 17 18 19 20 21 22 23 24 25 26 27 28 29 30 31 32 33 34 35 36 37 38 39 40 41 42 43 44 45 46 47 48 49 50
656
ASUS44 KLIX 222305
RWRLIX
NEW ORLEANS REGIONAL WEATHER ROUNDUP
NATIONAL WEATHER SERVICE NEW ORLEANS LA
600 PM CDT FRI AUG 22 2014

NOTE: "FAIR" INDICATES FEW OR NO CLOUDS BELOW 12,000 FEET WITH NO
      SIGNIFICANT WEATHER AND/OR OBSTRUCTIONS TO VISIBILITY.
      SKY/WX - SKY CONDITION AND SIGNIFICANT WEATHER.
      TMP - AIR TEMPERATURE.     DP    - DEWPOINT TEMPERATURE.
      RH  - RELATIVE HUMIDITY.   PRES  - PRESSURE.
      HI  - HEAT INDEX.          WCI   - WIND CHILL INDEX.

*  THESE STATIONS ARE NOT NWS OR FAA STATIONS AND ARE NOT UNDER
   NWS QUALITY CONTROL.

LAZ038-040-048-061>063-065>067-069-230000-
SOUTHEAST LOUISIANA

CITY           SKY/WX    TMP DP  RH WIND       PRES   REMARKS
N.O. AUDUBON     N/A     96  68  40 MISG        N/A  HX 101
N.O. INTL ARPT MOSUNNY   94  61  33 CALM      30.01F
N.O. LAKEFRONT SUNNY     91  72  53 NW5       30.02F HX  98
N.O. DOWNTOWN*   N/A     93  68  43 NE5       30.02F HX  97
SLIDELL        SUNNY     91  74  57 SW6       30.01S HX 100
BATON ROUGE    MOSUNNY   93  71  48 NW3       30.02F HX 100
BOOTHVILLE     SUNNY     90  71  53 E3        30.03F HX  96
BELLE CHASSE   MOSUNNY   93  68  43 E5        30.01F HX  97
BOGALUSA*        N/A     95  69  43 NE3       30.03S HX 101
GALLIANO*      NOT AVBL
NEW ROADS*       N/A     91  75  59 CALM      30.02F HX 101
GONZALES*        N/A     93  73  53 CALM      30.01F HX 102
HAMMOND*       MOSUNNY   95  66  38 CALM      30.03S HX  98
HOUMA*         MOSUNNY   93  70  46 NE5       30.02F HX  99
PORT FOURCHON* CLEAR     90  75  62 SE9       30.04F HX 100

$$

MSZ070-080>082-230000-
SOUTHERN MISSISSIPPI

CITY           SKY/WX    TMP DP  RH WIND       PRES   REMARKS
MCCOMB         SUNNY     93  69  45 CALM      30.03F HX  98
GULFPORT       MOSUNNY   91  73  55 S5        30.00F HAZE    HX  99
BILOXI         MOSUNNY   91  74  57 SW9       30.01F HX 100
PASCAGOULA     SUNNY     89  75  63 SW7       30.01F HX  99
STENNIS ARPT*  MOSUNNY  N/A N/A N/A SW9       30.01F

$$

COASTAL OBSERVATIONS
LAKE AND NEARSHORE STATIONS

STATION/POSITION TIME  TEMP    WIND        PRES    WAVE
                       AIR SEA DIR/SP/G            HT/PER
                 (UTC) (F)     (DEG/KT/KT) (MB)    (FT/S)
PASCAGOULA       2300   89     210/  8/ 10 1016.0
WAVELAND YACHT   2300   90     190/  7/ 10 1015.8
GRAND ISLE       2300   90 90  140/  4/  5 1017.6
SOUTHWEST PASS   2300   93 89  120/  7/  8 1017.3
NEW CANAL        2300   91 87  360/  2/  3 1017.0
SHELL BEACH      2300   91 85  320/  2/  3 1016.5

OFFSHORE STATIONS

STATION/POSITION TIME  TEMP    WIND        PRES    WAVE
                       AIR SEA DIR/SP/G            HT/PER
                 (UTC) (F)     (DEG/KT/KT) (MB)    (FT/S)
64 S DAUPHIN ISL 2209   87 91   90/  4/  6 1017.1

$$




USA.gov is the U.S. government's official web portal to all federal, state and local government web resources and services.